| time (UTC) | temp F | wind direction | speed knots | gust knots | rain 1hr in | rain 24hr in | rain mn in | humidity % | barometer mb |
| 20260503022114 | 46 | 254 | 0.0 | 1.7 | 0.00 | 0.00 | 0.00 | 98 | 1027.4 |
| 20260503021612 | 46 | 278 | 0.0 | 0.9 | 0.00 | 0.00 | 0.00 | 98 | 1027.4 |
| 20260503021108 | 46 | 166 | 0.0 | 0.0 | 0.00 | 0.00 | 0.00 | 97 | 1027.6 |
| 20260503020605 | 47 | 166 | 0.0 | 1.7 | 0.00 | 0.00 | 0.00 | 96 | 1027.4 |
| 20260503015559 | 48 | 297 | 0.0 | 1.7 | 0.00 | 0.00 | 0.00 | 96 | 1027.3 |
| 20260503015056 | 48 | 157 | 0.0 | 1.7 | 0.00 | 0.00 | 0.00 | 95 | 1027.2 |
| 20260503014552 | 48 | 173 | 0.0 | 0.0 | 0.00 | 0.00 | 0.00 | 95 | 1027.0 |
| 20260503014050 | 48 | 172 | 0.0 | 0.9 | 0.00 | 0.00 | 0.00 | 95 | 1027.2 |
| 20260503013547 | 48 | 157 | 0.0 | 0.0 | 0.00 | 0.00 | 0.00 | 94 | 1027.1 |
| 20260503013045 | 49 | 157 | 0.0 | 0.9 | 0.00 | 0.00 | 0.00 | 94 | 1027.3 |
| 20260503012542 | 49 | 262 | 0.9 | 0.9 | 0.00 | 0.00 | 0.00 | 94 | 1027.3 |
| 20260503012038 | 49 | 165 | 0.0 | 0.0 | 0.00 | 0.00 | 0.00 | 94 | 1027.0 |
| 20260503011535 | 49 | 165 | 0.0 | 0.0 | 0.00 | 0.00 | 0.00 | 93 | 1027.1 |
| 20260503011032 | 49 | 261 | 0.0 | 0.0 | 0.00 | 0.00 | 0.00 | 93 | 1027.0 |
| 20260503010528 | 49 | 261 | 0.0 | 0.0 | 0.00 | 0.00 | 0.00 | 91 | 1026.6 |
| 20260503010026 | 49 | 279 | 0.0 | 0.9 | 0.00 | 0.00 | 0.00 | 91 | 1026.6 |
| 20260503005523 | 49 | 262 | 0.0 | 0.9 | 0.00 | 0.00 | 0.00 | 91 | 1026.7 |
| 20260503005020 | 50 | 262 | 0.0 | 0.9 | 0.00 | 0.00 | 0.00 | 89 | 1026.6 |
| 20260503004516 | 50 | 279 | 0.0 | 0.0 | 0.00 | 0.00 | 0.00 | 91 | 1026.5 |
| 20260503004015 | 50 | 270 | 0.0 | 0.0 | 0.00 | 0.00 | 0.00 | 89 | 1026.4 |
| 20260503003511 | 50 | 270 | 0.0 | 0.0 | 0.00 | 0.00 | 0.00 | 89 | 1026.4 |
| 20260503003009 | 50 | 270 | 0.0 | 0.9 | 0.00 | 0.00 | 0.00 | 89 | 1026.5 |
| 20260503002505 | 51 | 261 | 0.0 | 0.9 | 0.00 | 0.00 | 0.00 | 88 | 1026.4 |
| 20260503002001 | 51 | 270 | 0.9 | 0.9 | 0.00 | 0.00 | 0.00 | 86 | 1026.1 |
| 20260503001458 | 52 | 279 | 0.0 | 0.9 | 0.00 | 0.00 | 0.00 | 86 | 1026.1 |
| 20260503000955 | 52 | 262 | 0.0 | 0.9 | 0.00 | 0.00 | 0.00 | 84 | 1026.1 |
| 20260503000453 | 53 | 254 | 0.0 | 0.0 | 0.00 | 0.00 | 0.00 | 82 | 1026.0 |
| 20260502235950 | 53 | 254 | 0.0 | 0.0 | 0.00 | 0.00 | 0.00 | 82 | 1025.8 |
| 20260502235447 | 54 | 255 | 0.0 | 0.9 | 0.00 | 0.00 | 0.00 | 80 | 1025.7 |
| 20260502234944 | 54 | 246 | 0.0 | 0.9 | 0.00 | 0.00 | 0.00 | 79 | 1025.4 |
| 20260502234440 | 55 | 270 | 0.0 | 0.0 | 0.00 | 0.00 | 0.00 | 78 | 1025.7 |
| 20260502233938 | 55 | 270 | 0.0 | 0.0 | 0.00 | 0.00 | 0.00 | 78 | 1025.5 |
| 20260502233433 | 56 | 270 | 0.0 | 0.0 | 0.00 | 0.00 | 0.00 | 76 | 1025.3 |
| 20260502232930 | 56 | 254 | 0.0 | 0.9 | 0.00 | 0.00 | 0.00 | 71 | 1025.5 |
| 20260502232426 | 57 | 105 | 0.0 | 0.0 | 0.00 | 0.00 | 0.00 | 68 | 1025.4 |
| 20260502231923 | 57 | 135 | 1.7 | 1.7 | 0.00 | 0.00 | 0.00 | 67 | 1025.3 |
| 20260502231421 | 58 | 41 | 0.0 | 0.0 | 0.00 | 0.00 | 0.00 | 71 | 1025.2 |
| 20260502230919 | 58 | 41 | 0.0 | 2.6 | 0.00 | 0.00 | 0.00 | 66 | 1025.1 |
| 20260502230417 | 58 | 345 | 1.7 | 2.6 | 0.00 | 0.00 | 0.00 | 64 | 1025.1 |
| 20260502225915 | 59 | 23 | 0.0 | 0.0 | 0.00 | 0.00 | 0.00 | 65 | 1025.5 |
| 20260502225410 | 57 | 112 | 1.7 | 4.3 | 0.00 | 0.00 | 0.00 | 65 | 1025.2 |
| 20260502224907 | 58 | 83 | 3.5 | 3.5 | 0.00 | 0.00 | 0.00 | 64 | 1025.4 |
| 20260502224403 | 59 | 16 | 0.0 | 2.6 | 0.00 | 0.00 | 0.00 | 64 | 1025.3 |
| 20260502223900 | 57 | 0 | 0.9 | 1.7 | 0.00 | 0.00 | 0.00 | 65 | 1025.2 |
| 20260502223358 | 57 | 279 | 0.0 | 3.5 | 0.00 | 0.00 | 0.00 | 65 | 1025.3 |
| 20260502222856 | 57 | 6 | 2.6 | 4.3 | 0.00 | 0.00 | 0.00 | 66 | 1025.2 |
| 20260502222354 | 57 | 8 | 0.0 | 1.7 | 0.00 | 0.00 | 0.00 | 67 | 1025.1 |
| 20260502221849 | 57 | 283 | 0.0 | 3.5 | 0.00 | 0.00 | 0.00 | 66 | 1025.2 |
| 20260502221345 | 57 | 0 | 1.7 | 3.5 | 0.00 | 0.00 | 0.00 | 67 | 1025.1 |
| 20260502220842 | 57 | 9 | 2.6 | 2.6 | 0.00 | 0.00 | 0.00 | 70 | 1025.2 |
| 20260502220338 | 57 | 341 | 1.7 | 1.7 | 0.00 | 0.00 | 0.00 | 71 | 1025.2 |
| 20260502215835 | 58 | 0 | 0.0 | 1.7 | 0.00 | 0.00 | 0.00 | 72 | 1025.3 |
| 20260502215333 | 57 | 284 | 2.6 | 4.3 | 0.00 | 0.00 | 0.00 | 73 | 1025.2 |
| 20260502214829 | 58 | 36 | 1.7 | 5.2 | 0.00 | 0.00 | 0.00 | 72 | 1025.0 |
| 20260502214326 | 58 | 17 | 4.3 | 7.0 | 0.00 | 0.00 | 0.00 | 72 | 1024.9 |
| 20260502213824 | 58 | 329 | 3.5 | 4.3 | 0.00 | 0.00 | 0.00 | 73 | 1025.0 |
| 20260502213321 | 58 | 282 | 2.6 | 5.2 | 0.00 | 0.00 | 0.00 | 73 | 1024.8 |
| 20260502212820 | 58 | 237 | 0.0 | 5.2 | 0.00 | 0.00 | 0.00 | 72 | 1025.0 |
| 20260502212317 | 58 | 257 | 1.7 | 7.8 | 0.00 | 0.00 | 0.00 | 72 | 1025.0 |
| 20260502211814 | 59 | 23 | 0.9 | 2.6 | 0.00 | 0.00 | 0.00 | 71 | 1025.0 |
| 20260502211310 | 59 | 319 | 1.7 | 4.3 | 0.00 | 0.00 | 0.00 | 72 | 1024.9 |
| 20260502210808 | 59 | 15 | 0.0 | 2.6 | 0.00 | 0.00 | 0.00 | 71 | 1025.0 |
| 20260502210305 | 59 | 22 | 1.7 | 2.6 | 0.00 | 0.00 | 0.00 | 71 | 1025.1 |
| 20260502205802 | 59 | 286 | 0.0 | 6.1 | 0.00 | 0.00 | 0.00 | 71 | 1025.1 |
| 20260502205258 | 59 | 43 | 3.5 | 4.3 | 0.00 | 0.00 | 0.00 | 71 | 1025.0 |
| 20260502204755 | 59 | 159 | 0.0 | 2.6 | 0.00 | 0.00 | 0.00 | 71 | 1024.8 |
| 20260502204252 | 59 | 90 | 1.7 | 2.6 | 0.00 | 0.00 | 0.00 | 71 | 1025.0 |
| 20260502203750 | 59 | 0 | 0.9 | 2.6 | 0.00 | 0.00 | 0.00 | 71 | 1024.9 |
| 20260502203248 | 59 | 7 | 0.9 | 2.6 | 0.00 | 0.00 | 0.00 | 72 | 1025.1 |
| 20260502202747 | 59 | 95 | 0.0 | 5.2 | 0.00 | 0.00 | 0.00 | 73 | 1024.9 |
| 20260502202245 | 59 | 26 | 0.9 | 1.7 | 0.00 | 0.00 | 0.00 | 74 | 1025.1 |
| 20260502201743 | 59 | 40 | 0.0 | 1.7 | 0.00 | 0.00 | 0.00 | 73 | 1025.0 |
| 20260502201239 | 58 | 9 | 1.7 | 3.5 | 0.00 | 0.00 | 0.00 | 72 | 1025.1 |
| 20260502200735 | 59 | 113 | 2.6 | 2.6 | 0.00 | 0.00 | 0.00 | 72 | 1025.1 |
| 20260502200231 | 59 | 109 | 2.6 | 4.3 | 0.00 | 0.00 | 0.00 | 74 | 1025.0 |
| 20260502195730 | 58 | 0 | 1.7 | 6.1 | 0.00 | 0.00 | 0.00 | 75 | 1025.0 |
| 20260502195226 | 58 | 103 | 2.6 | 5.2 | 0.00 | 0.00 | 0.00 | 74 | 1025.1 |
| 20260502194723 | 58 | 102 | 1.7 | 6.1 | 0.00 | 0.00 | 0.00 | 75 | 1025.1 |
| 20260502194220 | 58 | 110 | 4.3 | 4.3 | 0.00 | 0.00 | 0.00 | 75 | 1025.2 |
| 20260502193715 | 58 | 126 | 3.5 | 5.2 | 0.00 | 0.00 | 0.00 | 75 | 1025.2 |
| 20260502193213 | 58 | 166 | 2.6 | 5.2 | 0.00 | 0.00 | 0.00 | 75 | 1025.4 |
| 20260502192708 | 59 | 58 | 2.6 | 4.3 | 0.00 | 0.00 | 0.00 | 75 | 1025.5 |
| 20260502192206 | 59 | 128 | 3.5 | 6.1 | 0.00 | 0.00 | 0.00 | 76 | 1025.6 |
| 20260502191657 | 58 | 81 | 3.5 | 4.3 | 0.00 | 0.00 | 0.00 | 76 | 1025.2 |
| 20260502191155 | 58 | 138 | 2.6 | 6.1 | 0.00 | 0.00 | 0.00 | 77 | 1025.4 |
| 20260502190652 | 58 | 111 | 4.3 | 7.0 | 0.00 | 0.00 | 0.00 | 77 | 1025.5 |
| 20260502190150 | 57 | 55 | 4.3 | 4.3 | 0.00 | 0.00 | 0.00 | 77 | 1025.4 |
| 20260502185644 | 58 | 80 | 1.7 | 6.1 | 0.00 | 0.00 | 0.00 | 81 | 1025.5 |
| 20260502185141 | 59 | 69 | 2.6 | 2.6 | 0.00 | 0.00 | 0.00 | 81 | 1025.6 |
| 20260502184637 | 58 | 90 | 0.9 | 2.6 | 0.00 | 0.00 | 0.00 | 81 | 1025.8 |
| 20260502184133 | 57 | 48 | 0.0 | 2.6 | 0.00 | 0.00 | 0.00 | 81 | 1026.0 |
| 20260502183630 | 57 | 115 | 4.3 | 5.2 | 0.00 | 0.00 | 0.00 | 81 | 1025.8 |
| 20260502183126 | 58 | 110 | 1.7 | 4.3 | 0.00 | 0.00 | 0.00 | 82 | 1025.6 |
| 20260502182621 | 58 | 66 | 2.6 | 5.2 | 0.00 | 0.00 | 0.00 | 80 | 1025.8 |
| 20260502182117 | 57 | 21 | 0.0 | 4.3 | 0.00 | 0.00 | 0.00 | 80 | 1026.2 |
| 20260502181614 | 58 | 78 | 0.0 | 2.6 | 0.00 | 0.00 | 0.00 | 83 | 1026.1 |
| 20260502181108 | 56 | 74 | 1.7 | 3.5 | 0.00 | 0.00 | 0.00 | 83 | 1025.9 |
| 20260502180605 | 56 | 108 | 4.3 | 5.2 | 0.00 | 0.00 | 0.00 | 83 | 1026.0 |
| 20260502164013 | 56 | 283 | 0.9 | 4.3 | 0.00 | 0.00 | 0.00 | 85 | 1027.0 |
| 20260502163509 | 56 | 126 | 3.5 | 4.3 | 0.00 | 0.00 | 0.00 | 86 | 1027.0 |
| 20260502163006 | 55 | 77 | 5.2 | 6.1 | 0.00 | 0.00 | 0.00 | 87 | 1027.2 |
| 20260502162503 | 55 | 0 | 0.0 | 4.3 | 0.00 | 0.00 | 0.00 | 89 | 1027.4 |
| 20260502162000 | 55 | 148 | 1.7 | 2.6 | 0.00 | 0.00 | 0.00 | 88 | 1027.6 |
| 20260502161456 | 55 | 94 | 2.6 | 4.3 | 0.00 | 0.00 | 0.00 | 89 | 1027.5 |
| 20260502160955 | 55 | 104 | 2.6 | 6.1 | 0.00 | 0.00 | 0.00 | 88 | 1027.9 |
| 20260502160452 | 55 | 101 | 4.3 | 5.2 | 0.00 | 0.00 | 0.00 | 88 | 1027.6 |
| 20260502151941 | 55 | 22 | 1.7 | 2.6 | 0.00 | 0.00 | 0.00 | 90 | 1027.2 |
| 20260502151438 | 55 | 29 | 2.6 | 4.3 | 0.00 | 0.00 | 0.00 | 88 | 1027.1 |
| 20260502150935 | 55 | 106 | 0.0 | 4.3 | 0.00 | 0.00 | 0.00 | 88 | 1027.3 |
| 20260502150432 | 55 | 6 | 3.5 | 4.3 | 0.00 | 0.00 | 0.00 | 87 | 1027.1 |
| 20260502130318 | 54 | 24 | 1.7 | 3.5 | 0.00 | 0.00 | 0.00 | 83 | 1026.5 |
| 20260502123803 | 54 | 0 | 1.7 | 4.3 | 0.00 | 0.00 | 0.00 | 84 | 1026.4 |
| 20260502123300 | 54 | 28 | 3.5 | 4.3 | 0.00 | 0.00 | 0.00 | 83 | 1026.6 |
| 20260502122757 | 54 | 270 | 0.9 | 3.5 | 0.00 | 0.00 | 0.00 | 85 | 1026.5 |
| 20260502122253 | 54 | 332 | 1.7 | 8.7 | 0.00 | 0.00 | 0.00 | 84 | 1026.4 |
| 20260502121751 | 54 | 0 | 1.7 | 3.5 | 0.00 | 0.00 | 0.00 | 85 | 1025.9 |
| 20260502121249 | 54 | 189 | 0.0 | 4.3 | 0.00 | 0.00 | 0.00 | 85 | 1026.0 |
| 20260502120745 | 53 | 117 | 0.0 | 3.5 | 0.00 | 0.00 | 0.00 | 87 | 1026.1 |
| 20260502120242 | 53 | 29 | 1.7 | 3.5 | 0.00 | 0.00 | 0.00 | 88 | 1026.1 |
| 20260502115740 | 53 | 70 | 1.7 | 3.5 | 0.00 | 0.00 | 0.00 | 87 | 1026.2 |
| 20260502115237 | 53 | 140 | 0.0 | 3.5 | 0.00 | 0.00 | 0.00 | 87 | 1026.1 |
| 20260502114732 | 53 | 41 | 1.7 | 5.2 | 0.00 | 0.00 | 0.00 | 87 | 1026.3 |
| 20260502114230 | 53 | 61 | 4.3 | 4.3 | 0.00 | 0.00 | 0.00 | 87 | 1026.0 |
| 20260502113727 | 53 | 13 | 4.3 | 4.3 | 0.00 | 0.00 | 0.00 | 87 | 1026.1 |
| 20260502113224 | 53 | 10 | 2.6 | 2.6 | 0.00 | 0.00 | 0.00 | 88 | 1026.2 |
| 20260502112722 | 53 | 350 | 0.0 | 3.5 | 0.00 | 0.00 | 0.00 | 88 | 1026.3 |
| 20260502112220 | 53 | 234 | 0.0 | 2.6 | 0.00 | 0.00 | 0.00 | 87 | 1026.2 |
| 20260502111717 | 53 | 18 | 2.6 | 6.1 | 0.00 | 0.00 | 0.00 | 86 | 1026.5 |
| 20260502111214 | 54 | 351 | 2.6 | 5.2 | 0.00 | 0.00 | 0.00 | 87 | 1026.3 |
| 20260502110712 | 53 | 351 | 3.5 | 4.3 | 0.00 | 0.00 | 0.00 | 88 | 1026.4 |
| 20260502110209 | 53 | 52 | 0.0 | 2.6 | 0.00 | 0.00 | 0.00 | 88 | 1026.5 |
| 20260502105707 | 54 | 331 | 0.0 | 2.6 | 0.00 | 0.00 | 0.00 | 87 | 1026.3 |
| 20260502105203 | 54 | 276 | 0.0 | 2.6 | 0.00 | 0.00 | 0.00 | 88 | 1026.3 |
| 20260502104701 | 54 | 354 | 0.9 | 2.6 | 0.00 | 0.00 | 0.00 | 86 | 1026.4 |
| 20260502104158 | 54 | 257 | 2.6 | 3.5 | 0.00 | 0.00 | 0.00 | 87 | 1026.4 |
| 20260502103655 | 54 | 109 | 0.0 | 3.5 | 0.00 | 0.00 | 0.00 | 85 | 1026.3 |
| 20260502103153 | 55 | 236 | 4.3 | 4.3 | 0.00 | 0.00 | 0.00 | 86 | 1026.3 |
| 20260502102650 | 55 | 312 | 1.7 | 4.3 | 0.00 | 0.00 | 0.00 | 86 | 1026.6 |
| 20260502102147 | 55 | 299 | 2.6 | 6.1 | 0.00 | 0.00 | 0.00 | 86 | 1026.4 |
| 20260502101645 | 55 | 286 | 1.7 | 2.6 | 0.00 | 0.00 | 0.00 | 87 | 1026.5 |
| 20260502101143 | 54 | 279 | 0.0 | 1.7 | 0.00 | 0.00 | 0.00 | 89 | 1026.3 |
| 20260502100641 | 54 | 261 | 1.7 | 2.6 | 0.00 | 0.00 | 0.00 | 90 | 1026.3 |
| 20260502100139 | 54 | 336 | 1.7 | 3.5 | 0.00 | 0.00 | 0.00 | 91 | 1026.6 |
| 20260502091113 | 53 | 270 | 0.0 | 0.0 | 0.00 | 0.00 | 0.00 | 97 | 1026.5 |
| 20260502090610 | 53 | 270 | 0.0 | 0.0 | 0.00 | 0.00 | 0.00 | 96 | 1026.4 |
| 20260502090107 | 53 | 337 | 0.0 | 0.0 | 0.00 | 0.00 | 0.00 | 96 | 1026.2 |
| 20260502071504 | 52 | 173 | 0.0 | 0.0 | 0.00 | 0.00 | 0.00 | 98 | 1025.7 |
| 20260502071002 | 52 | 168 | 0.9 | 0.9 | 0.00 | 0.00 | 0.00 | 98 | 1025.5 |
| 20260502070500 | 52 | 8 | 0.0 | 0.0 | 0.00 | 0.00 | 0.00 | 98 | 1025.7 |
| 20260502065958 | 52 | 352 | 0.0 | 0.0 | 0.00 | 0.00 | 0.00 | 99 | 1025.6 |
| 20260502065456 | 52 | 0 | 0.0 | 0.0 | 0.00 | 0.00 | 0.00 | 99 | 1025.4 |
| 20260502064954 | 52 | 0 | 0.0 | 0.0 | 0.00 | 0.00 | 0.00 | 99 | 1025.8 |
| 20260502064452 | 52 | 0 | 0.0 | 0.0 | 0.00 | 0.00 | 0.00 | 99 | 1025.7 |
| 20260502063949 | 52 | 279 | 0.0 | 0.0 | 0.00 | 0.00 | 0.00 | 99 | 1025.7 |
| 20260502063447 | 52 | 279 | 0.0 | 0.0 | 0.00 | 0.00 | 0.00 | 99 | 1025.7 |
| 20260502062944 | 52 | 279 | 0.0 | 0.0 | 0.00 | 0.00 | 0.00 | 98 | 1025.6 |
| 20260502062441 | 52 | 165 | 0.0 | 0.0 | 0.00 | 0.00 | 0.00 | 98 | 1025.7 |
| 20260502061940 | 52 | 195 | 0.0 | 0.0 | 0.00 | 0.00 | 0.00 | 98 | 1025.7 |
| 20260502061437 | 52 | 209 | 0.0 | 1.7 | 0.00 | 0.00 | 0.00 | 98 | 1025.8 |
| 20260502060933 | 52 | 203 | 0.0 | 0.0 | 0.00 | 0.00 | 0.00 | 98 | 1025.8 |
| 20260502060428 | 52 | 195 | 0.0 | 0.9 | 0.00 | 0.00 | 0.00 | 98 | 1025.7 |
| 20260502055925 | 52 | 8 | 0.0 | 0.0 | 0.00 | 0.00 | 0.00 | 98 | 1025.6 |
| 20260502055424 | 52 | 8 | 0.0 | 0.0 | 0.00 | 0.00 | 0.00 | 97 | 1025.7 |
| 20260502054923 | 52 | 8 | 0.0 | 0.0 | 0.00 | 0.00 | 0.00 | 97 | 1025.7 |
| 20260502054420 | 53 | 8 | 0.0 | 0.0 | 0.00 | 0.00 | 0.00 | 97 | 1025.8 |
| 20260502053918 | 53 | 15 | 0.0 | 0.9 | 0.00 | 0.00 | 0.00 | 97 | 1025.9 |
| 20260502053415 | 52 | 285 | 0.9 | 0.9 | 0.00 | 0.00 | 0.00 | 97 | 1026.1 |
| 20260502052912 | 52 | 180 | 0.0 | 0.0 | 0.00 | 0.00 | 0.00 | 97 | 1025.9 |
| 20260502052411 | 52 | 195 | 0.0 | 0.0 | 0.00 | 0.00 | 0.00 | 97 | 1026.1 |
| 20260502051908 | 53 | 195 | 0.0 | 0.9 | 0.00 | 0.00 | 0.00 | 97 | 1026.1 |
| 20260502051406 | 53 | 203 | 0.0 | 0.0 | 0.00 | 0.00 | 0.00 | 96 | 1026.0 |
| 20260502050903 | 52 | 195 | 0.0 | 0.0 | 0.00 | 0.00 | 0.00 | 97 | 1026.4 |
| 20260502050359 | 53 | 195 | 0.0 | 0.0 | 0.00 | 0.00 | 0.00 | 96 | 1026.2 |
| 20260502045856 | 52 | 203 | 0.9 | 0.9 | 0.00 | 0.00 | 0.00 | 96 | 1026.1 |
| 20260502045353 | 52 | 0 | 0.0 | 0.0 | 0.00 | 0.00 | 0.00 | 96 | 1026.5 |
| 20260502044850 | 52 | 0 | 0.0 | 0.0 | 0.00 | 0.00 | 0.00 | 96 | 1026.6 |
| 20260502044346 | 53 | 0 | 0.0 | 0.0 | 0.00 | 0.00 | 0.00 | 96 | 1026.3 |
| 20260502043843 | 53 | 0 | 0.0 | 0.0 | 0.00 | 0.00 | 0.00 | 96 | 1026.5 |
| 20260502043340 | 53 | 0 | 0.0 | 0.9 | 0.00 | 0.00 | 0.00 | 96 | 1026.5 |
| 20260502042834 | 53 | 82 | 0.0 | 0.0 | 0.00 | 0.00 | 0.00 | 96 | 1026.3 |
| 20260502042332 | 53 | 82 | 0.0 | 0.0 | 0.00 | 0.00 | 0.00 | 96 | 1026.4 |
| 20260502041829 | 53 | 82 | 0.0 | 0.0 | 0.00 | 0.00 | 0.00 | 95 | 1026.4 |
| 20260502041326 | 53 | 82 | 0.0 | 0.0 | 0.00 | 0.00 | 0.00 | 95 | 1026.6 |
| 20260502040823 | 53 | 99 | 0.0 | 0.9 | 0.00 | 0.00 | 0.00 | 95 | 1026.4 |
| 20260502040320 | 52 | 270 | 0.0 | 0.0 | 0.00 | 0.00 | 0.00 | 95 | 1026.7 |
| 20260502035816 | 53 | 270 | 0.0 | 0.0 | 0.00 | 0.00 | 0.00 | 95 | 1026.7 |
| 20260502035313 | 52 | 264 | 0.0 | 0.0 | 0.00 | 0.00 | 0.00 | 95 | 1026.7 |
| 20260502034811 | 53 | 264 | 0.0 | 0.0 | 0.00 | 0.00 | 0.00 | 95 | 1026.5 |
| 20260502034309 | 53 | 264 | 0.0 | 0.9 | 0.00 | 0.00 | 0.00 | 94 | 1027.0 |
| 20260502033807 | 53 | 261 | 0.0 | 0.0 | 0.00 | 0.00 | 0.00 | 93 | 1026.7 |
| 20260502033304 | 53 | 352 | 0.0 | 0.0 | 0.00 | 0.00 | 0.00 | 93 | 1026.7 |
| 20260502032801 | 53 | 243 | 0.9 | 1.7 | 0.00 | 0.00 | 0.00 | 93 | 1026.6 |
| 20260502032257 | 53 | 270 | 0.0 | 0.0 | 0.00 | 0.00 | 0.00 | 93 | 1026.5 |
| 20260502031755 | 53 | 270 | 0.0 | 0.0 | 0.00 | 0.00 | 0.00 | 93 | 1026.4 |
| 20260502031253 | 53 | 261 | 0.0 | 0.0 | 0.00 | 0.00 | 0.00 | 92 | 1026.7 |
| 20260502030751 | 53 | 270 | 0.0 | 0.9 | 0.00 | 0.00 | 0.00 | 92 | 1026.5 |
| 20260502030248 | 53 | 270 | 0.0 | 0.0 | 0.00 | 0.00 | 0.00 | 92 | 1026.7 |
| 20260502025746 | 53 | 0 | 0.0 | 0.0 | 0.00 | 0.00 | 0.00 | 91 | 1026.7 |
| 20260502025243 | 54 | 246 | 0.0 | 0.0 | 0.00 | 0.00 | 0.00 | 91 | 1026.7 |
| 20260502024741 | 54 | 249 | 0.0 | 0.0 | 0.00 | 0.00 | 0.00 | 90 | 1026.7 |
| 20260502024239 | 54 | 250 | 0.0 | 0.0 | 0.00 | 0.00 | 0.00 | 90 | 1026.9 |
| 20260502023737 | 54 | 250 | 0.0 | 0.0 | 0.00 | 0.00 | 0.00 | 89 | 1026.9 |
| 20260502023234 | 54 | 250 | 0.0 | 2.6 | 0.00 | 0.00 | 0.00 | 89 | 1026.9 |
| 20260502022732 | 54 | 353 | 0.0 | 0.0 | 0.00 | 0.00 | 0.00 | 90 | 1026.7 |